Simultaneous Nadir Overpasses (SNOs) Predictions

Prediction of SNOs over PacNW region [( 10.00, 139.50) to ( 22.70, 165.60)] between AQUA and NPP Satellites:

Table of predicted SNOs over PacNW region for the next 30.0 days since TLE Epoch: 7/3/2021
Index Date (AQUA) Time (AQUA) AQUA Lat,Lon Date (NPP) Time (NPP) NPP Lat,Lon Distance(km) Time Diff (sec)
1 07/06/2021 15:09:43 22.59, 159.85 07/06/2021 15:11:08 23.19, 157.20 280.03 85
2 07/09/2021 03:31:34 22.66, 147.53 07/09/2021 03:28:05 25.00, 145.12 357.66 209
3 07/14/2021 15:59:12 22.62, 147.48 07/14/2021 16:01:57 23.27, 144.51 312.75 165
4 07/22/2021 15:09:49 22.59, 159.83 07/22/2021 15:11:20 23.16, 157.16 280.85 91
5 07/25/2021 03:31:38 22.64, 147.51 07/25/2021 03:28:09 24.64, 145.18 325.77 209
6 07/30/2021 15:59:16 22.62, 147.47 07/30/2021 16:02:07 23.30, 144.49 313.96 171
